When you browse on this site, cookies collect data to enhance your experience and personalize the content and advertising you see.
Visit our Privacy Policy to learn more. By continuing to use the site, you agree to this use of cookies and data.
  • în România
  • Lista ţărilor
  • Pe 7 zile
  • Temperatura apei
  • Meteo pe hartă
  • Widget-uri
  • user-avatar
    Intrare

    Meteo pe oră la Vratsa

    Astăzi, 18 Septembrie, Miercuri

    Timp Temperatura Precipitaţii Vânt Presiune Umiditate
    00:00 +19°C° 0 mm 1 m/s 707 mmHg 46%
    01:00 +19°C° 0 mm 1 m/s 707 mmHg 46%
    02:00 +18°C° 0 mm 2 m/s 707 mmHg 47%
    03:00 +17°C° 0 mm 2 m/s 707 mmHg 46%
    04:00 +17°C° 0 mm 2 m/s 706 mmHg 46%
    05:00 +17°C° 0 mm 2 m/s 706 mmHg 45%
    06:00 +18°C° 0 mm 2 m/s 707 mmHg 42%
    07:00 +19°C° 0 mm 2 m/s 707 mmHg 38%
    08:00 +21°C° 0 mm 2 m/s 708 mmHg 34%
    09:00 +22°C° 0 mm 4 m/s 709 mmHg 35%
    10:00 +23°C° 0 mm 6 m/s 709 mmHg 36%
    11:00 +24°C° 0 mm 8 m/s 710 mmHg 37%
    12:00 +24°C° 0 mm 7 m/s 710 mmHg 34%
    13:00 +24°C° 0 mm 7 m/s 710 mmHg 31%
    14:00 +24°C° 0 mm 6 m/s 710 mmHg 29%
    15:00 +23°C° 0 mm 6 m/s 710 mmHg 27%
    16:00 +22°C° 0 mm 5 m/s 710 mmHg 26%
    17:00 +21°C° 0 mm 5 m/s 710 mmHg 25%
    18:00 +19°C° 0 mm 4 m/s 711 mmHg 27%
    19:00 +17°C° 0 mm 3 m/s 711 mmHg 29%
    20:00 +14°C° 0 mm 2 m/s 711 mmHg 32%
    21:00 +14°C° 0 mm 2 m/s 711 mmHg 33%
    22:00 +13°C° 0 mm 1 m/s 711 mmHg 34%
    23:00 +12°C° 0 mm 1 m/s 711 mmHg 35%

    Mâine, 19 Septembrie, Joi

    Timp Temperatura Precipitaţii Vânt Presiune Umiditate
    00:00 +12°C° 0 mm 1 m/s 712 mmHg 35%
    01:00 +12°C° 0 mm 1 m/s 712 mmHg 35%
    02:00 +13°C° 0 mm 1 m/s 712 mmHg 34%
    03:00 +12°C° 0 mm 1 m/s 712 mmHg 37%
    04:00 +12°C° 0 mm 1 m/s 712 mmHg 39%
    05:00 +12°C° 0 mm 1 m/s 712 mmHg 41%
    06:00 +12°C° 0 mm 1 m/s 712 mmHg 42%
    07:00 +13°C° 0 mm 1 m/s 712 mmHg 43%
    08:00 +13°C° 0 mm 2 m/s 712 mmHg 44%
    09:00 +13°C° 0 mm 2 m/s 712 mmHg 44%
    10:00 +12°C° 0 mm 3 m/s 712 mmHg 44%
    11:00 +12°C° 0 mm 3 m/s 712 mmHg 44%
    12:00 +12°C° 0 mm 3 m/s 712 mmHg 47%
    13:00 +12°C° 0 mm 3 m/s 712 mmHg 49%
    14:00 +13°C° 0 mm 3 m/s 712 mmHg 51%
    15:00 +13°C° 0.1 mm 2 m/s 712 mmHg 58%
    16:00 +10°C° 0.1 mm 2 m/s 711 mmHg 64%
    17:00 +9°C° 0.1 mm 2 m/s 711 mmHg 71%
    18:00 +10°C° 0.1 mm 1 m/s 712 mmHg 73%
    19:00 +10°C° 0.1 mm 1 m/s 712 mmHg 75%
    20:00 +10°C° 0.1 mm 1 m/s 712 mmHg 77%
    21:00 +9°C° 0 mm 1 m/s 712 mmHg 75%
    22:00 +9°C° 0 mm 1 m/s 712 mmHg 72%
    23:00 +9°C° 0 mm 1 m/s 713 mmHg 69%

    Poimâine, 20 Septembrie, Vineri

    Timp Temperatura Precipitaţii Vânt Presiune Umiditate
    00:00 +9°C° 0 mm 1 m/s 712 mmHg 65%
    01:00 +8°C° 0 mm 1 m/s 712 mmHg 62%
    02:00 +7°C° 0 mm 2 m/s 712 mmHg 58%
    03:00 +7°C° 0 mm 2 m/s 712 mmHg 57%
    04:00 +6°C° 0 mm 2 m/s 712 mmHg 57%
    05:00 +6°C° 0 mm 2 m/s 712 mmHg 57%
    06:00 +8°C° 0 mm 2 m/s 712 mmHg 52%
    07:00 +9°C° 0 mm 2 m/s 713 mmHg 47%
    08:00 +12°C° 0 mm 2 m/s 713 mmHg 42%
    09:00 +13°C° 0 mm 3 m/s 713 mmHg 36%
    10:00 +15°C° 0 mm 4 m/s 713 mmHg 30%
    11:00 +16°C° 0 mm 5 m/s 714 mmHg 23%
    12:00 +17°C° 0 mm 5 m/s 713 mmHg 22%
    13:00 +19°C° 0 mm 5 m/s 713 mmHg 21%
    14:00 +19°C° 0 mm 4 m/s 713 mmHg 19%
    15:00 +19°C° 0 mm 4 m/s 713 mmHg 20%
    16:00 +18°C° 0 mm 4 m/s 712 mmHg 21%
    17:00 +18°C° 0 mm 4 m/s 712 mmHg 21%
    18:00 +16°C° 0 mm 3 m/s 713 mmHg 26%
    19:00 +12°C° 0 mm 3 m/s 713 mmHg 31%
    20:00 +9°C° 0 mm 2 m/s 713 mmHg 35%
    21:00 +9°C° 0 mm 2 m/s 713 mmHg 37%
    22:00 +8°C° 0 mm 2 m/s 713 mmHg 39%
    23:00 +8°C° 0 mm 2 m/s 714 mmHg 40%

    21 Septembrie, Sâmbătă

    Timp Temperatura Precipitaţii Vânt Presiune Umiditate
    00:00 +7°C° 0 mm 2 m/s 714 mmHg 42%
    01:00 +7°C° 0 mm 2 m/s 714 mmHg 44%
    02:00 +7°C° 0 mm 2 m/s 714 mmHg 46%
    03:00 +6°C° 0 mm 2 m/s 714 mmHg 48%
    04:00 +6°C° 0 mm 2 m/s 714 mmHg 50%
    05:00 +5°C° 0 mm 2 m/s 714 mmHg 53%
    06:00 +6°C° 0 mm 2 m/s 715 mmHg 49%
    07:00 +8°C° 0 mm 2 m/s 715 mmHg 46%
    08:00 +9°C° 0 mm 2 m/s 715 mmHg 42%
    09:00 +12°C° 0 mm 2 m/s 716 mmHg 38%
    10:00 +14°C° 0 mm 2 m/s 716 mmHg 33%
    11:00 +16°C° 0 mm 3 m/s 717 mmHg 29%
    12:00 +17°C° 0 mm 3 m/s 716 mmHg 27%
    13:00 +18°C° 0 mm 3 m/s 716 mmHg 25%
    14:00 +19°C° 0 mm 3 m/s 716 mmHg 23%
    15:00 +19°C° 0 mm 2 m/s 715 mmHg 23%
    16:00 +19°C° 0 mm 2 m/s 715 mmHg 23%
    17:00 +18°C° 0 mm 2 m/s 715 mmHg 23%
    18:00 +16°C° 0 mm 2 m/s 715 mmHg 28%
    19:00 +13°C° 0 mm 1 m/s 715 mmHg 33%
    20:00 +11°C° 0 mm 1 m/s 715 mmHg 37%
    21:00 +10°C° 0 mm 1 m/s 715 mmHg 39%
    22:00 +9°C° 0 mm 1 m/s 715 mmHg 40%
    23:00 +9°C° 0 mm 1 m/s 716 mmHg 41%

    22 Septembrie, Duminică

    Timp Temperatura Precipitaţii Vânt Presiune Umiditate
    00:00 +9°C° 0 mm 1 m/s 716 mmHg 43%
    01:00 +8°C° 0 mm 1 m/s 716 mmHg 44%
    02:00 +8°C° 0 mm 1 m/s 716 mmHg 45%
    03:00 +8°C° 0 mm 1 m/s 716 mmHg 50%
    04:00 +7°C° 0 mm 1 m/s 716 mmHg 54%
    05:00 +6°C° 0 mm 2 m/s 716 mmHg 59%
    06:00 +8°C° 0 mm 1 m/s 716 mmHg 54%
    07:00 +9°C° 0 mm 1 m/s 716 mmHg 50%
    08:00 +11°C° 0 mm 1 m/s 716 mmHg 46%
    09:00 +13°C° 0 mm 1 m/s 716 mmHg 39%
    10:00 +16°C° 0 mm 1 m/s 717 mmHg 33%
    11:00 +19°C° 0 mm 2 m/s 717 mmHg 26%
    12:00 +20°C° 0 mm 2 m/s 716 mmHg 24%
    13:00 +21°C° 0 mm 2 m/s 716 mmHg 22%
    14:00 +24°C° 0 mm 2 m/s 715 mmHg 20%
    15:00 +23°C° 0 mm 2 m/s 715 mmHg 20%
    16:00 +23°C° 0 mm 2 m/s 714 mmHg 20%
    17:00 +23°C° 0 mm 2 m/s 714 mmHg 20%
    18:00 +19°C° 0 mm 2 m/s 713 mmHg 25%
    19:00 +16°C° 0 mm 2 m/s 713 mmHg 30%
    20:00 +13°C° 0 mm 1 m/s 712 mmHg 35%
    21:00 +12°C° 0 mm 2 m/s 712 mmHg 36%
    22:00 +12°C° 0 mm 2 m/s 712 mmHg 37%
    23:00 +10°C° 0 mm 2 m/s 712 mmHg 38%

    23 Septembrie, Luni

    Timp Temperatura Precipitaţii Vânt Presiune Umiditate
    00:00 +10°C° 0 mm 2 m/s 712 mmHg 39%
    01:00 +10°C° 0 mm 2 m/s 712 mmHg 40%
    02:00 +9°C° 0 mm 2 m/s 712 mmHg 40%
    03:00 +9°C° 0 mm 2 m/s 711 mmHg 42%
    04:00 +9°C° 0 mm 2 m/s 711 mmHg 44%
    05:00 +8°C° 0 mm 2 m/s 711 mmHg 46%
    06:00 +11°C° 0 mm 1 m/s 711 mmHg 44%
    07:00 +12°C° 0 mm 1 m/s 711 mmHg 41%
    08:00 +14°C° 0 mm 1 m/s 711 mmHg 38%
    09:00 +18°C° 0 mm 1 m/s 711 mmHg 33%
    10:00 +21°C° 0 mm 1 m/s 711 mmHg 29%
    11:00 +24°C° 0 mm 1 m/s 711 mmHg 24%
    12:00 +25°C° 0 mm 1 m/s 710 mmHg 22%
    13:00 +27°C° 0 mm 1 m/s 710 mmHg 21%
    14:00 +28°C° 0 mm 2 m/s 709 mmHg 20%
    15:00 +28°C° 0 mm 2 m/s 709 mmHg 20%
    16:00 +28°C° 0 mm 2 m/s 708 mmHg 21%
    17:00 +28°C° 0 mm 2 m/s 708 mmHg 21%
    18:00 +25°C° 0 mm 1 m/s 707 mmHg 24%
    19:00 +23°C° 0 mm 1 m/s 707 mmHg 27%
    20:00 +18°C° 0 mm 0 m/s 707 mmHg 30%
    21:00 +20°C° 0 mm 1 m/s 707 mmHg 31%
    22:00 +20°C° 0 mm 1 m/s 707 mmHg 32%
    23:00 +19°C° 0 mm 1 m/s 707 mmHg 33%
    Arată mai mult